PST,Max TemperatureF,Mean TemperatureF,Min TemperatureF,Max Dew PointF,MeanDew PointF,Min DewpointF,Max Humidity, Mean Humidity, Min Humidity, Max Sea Level PressureIn, Mean Sea Level PressureIn, Min Sea Level PressureIn, Max VisibilityMiles, Mean VisibilityMiles, Min VisibilityMiles, Max Wind SpeedMPH, Mean Wind SpeedMPH, Max Gust SpeedMPH,PrecipitationIn, CloudCover, Events, WindDirDegrees
2013-2-1,33,32,32,32,31,30,96,91,87,30.34,30.28,30.24,1,0,0,9,7,,0.04,8,Fog-Snow,272
2013-2-2,32,28,28,27,27,27,92,87,82,30.41,30.37,30.32,10,10,10,8,7,,0.00,0,,50
2013-2-3,32,31,30,30,28,26,96,90,79,30.24,30.19,30.10,10,3,0,7,5,,0.01,0,Fog-Snow,-1
2013-2-4,33,32,30,31,30,29,93,91,87,30.15,30.08,29.89,2,1,0,6,4,,0.02,7,Fog-Snow,280
2013-2-5,34,31,30,32,30,28,96,93,92,29.86,29.82,29.79,10,4,0,5,2,,0.11,8,Fog-Snow,80
2013-2-6,32,30,28,29,28,27,100,93,85,30.02,29.92,29.80,10,3,0,9,7,21,0.09,7,Fog-Snow,273
2013-2-7,30,27,24,27,25,21,93,88,74,30.12,29.93,29.79,10,4,0,9,6,,0.00,7,Fog-Snow,261
2013-2-8,27,26,24,25,23,21,96,89,86,30.22,30.13,30.04,10,5,0,8,5,,0.00,8,Fog,253
2013-2-9,30,27,24,27,25,23,93,90,86,30.25,30.16,30.09,4,1,0,9,6,,0.01,8,Fog-Snow,252
2013-2-10,35,30,26,30,26,23,93,90,81,30.29,30.22,30.17,10,3,0,9,7,18,0.00,6,Fog,235
2013-2-11,33,30,28,29,27,24,88,85,81,30.28,30.22,30.18,9,2,0,9,7,20,0.00,8,Fog-Snow,267
2013-2-12,34,32,30,33,30,28,96,88,81,30.35,30.24,30.18,10,2,0,17,10,38,0.03,8,Fog-Rain-Snow,276
2013-2-13,33,30,28,32,29,27,100,93,87,30.36,30.28,30.20,10,2,0,18,12,30,0.01,8,Fog-Rain-Snow,267
2013-2-14,36,33,30,33,29,27,96,89,82,30.53,30.46,30.39,3,1,0,6,4,,0.04,8,Fog-Snow,248
2013-2-15,39,36,30,32,31,29,93,89,73,30.44,30.37,30.25,10,4,0,7,4,,0.00,2,Fog,95
2013-2-16,32,30,26,30,28,25,93,92,86,30.19,30.04,29.98,7,2,0,15,9,34,0.19,7,Fog-Snow,261
2013-2-17,27,26,25,25,23,21,93,88,80,30.14,30.10,30.06,10,6,0,9,6,17,0.01,8,Fog-Snow,265
2013-2-18,23,21,21,20,19,19,93,90,88,30.01,29.97,29.94,10,8,4,6,4,,0.00,7,,60
2013-2-19,,,,,,,,,,,,,,,,,,,,,,
2013-2-20,,,,,,,,,,,,,,,,,,,,,,
2013-2-21,28,28,28,27,26,26,96,93,89,30.01,29.96,29.89,1,0,0,12,8,24,0.36,,Fog-Snow,271
2013-2-22,30,28,24,28,26,23,93,93,93,29.65,29.62,29.60,3,1,0,17,13,36,0.00,8,Fog-Snow,266
2013-2-23,,,,,,,,,,,,,,,,,,,,,,
2013-2-24,,,,,,,,,,,,,,,,,,,,,,
2013-2-25,,,,,,,,,,,,,,,,,,,,,,
2013-2-26,,,,,,,,,,,,,,,,,,,,,,
2013-2-27,32,,32,30,30,30,93,93,93,30.21,30.21,30.21,1,1,1,4,4,,0.00,8,,-1
2013-2-28,,,,,,,,,,,,,,,,,,,,,,